Flight Track Log - Related Links

Times and Time Zones

All times are in EDT time to prevent confusion due to time zone crossing. See the EJA328 flight status page for this flight to view local times or setup timezone preferences in your user account.

Time Position Orientation Groundspeed Altitude Reporting Facility
EDT Latitude Longitude Course Direction KTS MPH feet Rate Location/Type
Tue 04:49:04 PM 30.0430 -95.5535 204° Southwest 154 177 1,600  Level FlightAware ADS-B
Tue 04:49:09 PM 30.0420 -95.5541 213° Southwest 160 184 1,600 800 Level FlightAware ADS-B (KROW)
Tue 04:49:19 PM 30.0344 -95.5631 236° Southwest 184 212 1,800 1,200 Climbing FlightAware ADS-B
Tue 04:49:24 PM 30.0321 -95.5671 238° Southwest 190 219 1,900 571 Climbing FlightAware ADS-B
Tue 04:49:40 PM 30.0246 -95.5806 238° Southwest 199 229 2,000 250 Climbing FlightAware ADS-B
Tue 04:49:48 PM 30.0238 -95.5820 238° Southwest 199 229 2,000  Level FlightAware ADS-B (KROW)
Tue 04:50:08 PM 30.0106 -95.6066 239° Southwest 203 234 2,000  Level FlightAware ADS-B (KROW)
Tue 04:50:25 PM 30.0077 -95.6121 240° Southwest 204 235 2,000  Level FlightAware ADS-B (KROW)
Tue 04:50:34 PM 30.0024 -95.6341 275° West 215 247 2,000  Level FlightAware ADS-B
Tue 04:50:39 PM 30.0077 -95.6121 240° Southwest 204 235 2,000  Level FlightAware ADS-B (KROW)
Tue 04:50:42 PM 30.0135 -95.6011 240° Southwest 202 232 2,000 1,385 Level FlightAware ADS-B
Tue 04:50:52 PM 30.0047 -95.6533 280° West 208 239 2,300 2,118 Climbing FlightAware ADS-B
Tue 04:50:59 PM 30.0063 -95.6614 286° West 214 246 2,600 3,130 Climbing FlightAware ADS-B
Tue 04:51:15 PM 30.0104 -95.6788 284° West 215 247 3,500 3,714 Climbing FlightAware ADS-B
Tue 04:51:20 PM 30.0116 -95.6846 283° West 209 241 3,900 4,800 Climbing FlightAware ADS-B
Tue 04:51:25 PM 30.0126 -95.6897 282° West 206 237 4,300 4,421 Climbing FlightAware ADS-B
Tue 04:51:39 PM 30.0151 -95.7050 280° West 203 234 5,300 4,333 Climbing FlightAware ADS-B (KROW)
Tue 04:51:43 PM 30.0154 -95.7072 280° West 203 234 5,600 3,900 Climbing FlightAware ADS-B (KROW)
Tue 04:51:59 PM 30.0179 -95.7274 278° West 202 232 6,600 3,484 Climbing FlightAware ADS-B
Tue 04:52:14 PM 30.0197 -95.7423 278° West 202 232 7,400 3,120 Climbing FlightAware ADS-B (KROW)
Tue 04:52:24 PM 30.0210 -95.7517 280° West 200 230 7,900 3,360 Climbing FlightAware ADS-B (KROW)
Tue 04:52:39 PM 30.0228 -95.7662 278° West 201 231 8,800 3,310 Climbing FlightAware ADS-B (KROW)
Tue 04:52:53 PM 30.0243 -95.7779 279° West 202 232 9,500 3,789 Climbing FlightAware ADS-B (KROW)
Tue 04:53:17 PM 30.0278 -95.8006 283° West 190 219 11,200 3,111 Climbing FlightAware ADS-B
Tue 04:53:47 PM 30.0341 -95.8351 281° West 215 247 12,300 1,700 Climbing FlightAware ADS-B
Tue 04:54:17 PM 30.0405 -95.8758 280° West 256 295 12,900 1,200 Climbing FlightAware ADS-B
Tue 04:54:47 PM 30.0474 -95.9187 281° West 297 342 13,500 1,100 Climbing FlightAware ADS-B
Tue 04:55:17 PM 30.0560 -95.9711 281° West 324 373 14,000 1,300 Climbing FlightAware ADS-B
Tue 04:55:47 PM 30.0635 -96.0253 279° West 337 388 14,800 1,862 Climbing FlightAware ADS-B
Tue 04:56:15 PM 30.0710 -96.0747 282° West 339 390 15,800 2,600 Climbing FlightAware ADS-B
Tue 04:56:47 PM 30.0815 -96.1291 284° West 322 371 17,400 3,443 Climbing FlightAware ADS-B
Tue 04:57:16 PM 30.0910 -96.1743 282° West 302 348 19,300 3,400 Climbing FlightAware ADS-B
Tue 04:57:47 PM 30.0986 -96.2258 280° West 296 341 20,800 2,262 Climbing FlightAware ADS-B
Tue 04:58:17 PM 30.1049 -96.2736 278° West 308 354 21,600 1,714 Climbing FlightAware ADS-B
Tue 04:58:50 PM 30.1113 -96.3265 279° West 314 361 22,600 1,292 Climbing FlightAware ADS-B
Tue 04:59:22 PM 30.1195 -96.3816 281° West 337 388 23,000 1,048 Climbing FlightAware ADS-B
Tue 04:59:53 PM 30.1282 -96.4378 280° West 347 399 23,700 1,400 Climbing FlightAware ADS-B
Tue 05:00:22 PM 30.1365 -96.4916 280° West 351 404 24,400 1,525 Climbing FlightAware ADS-B
Tue 05:00:52 PM 30.1450 -96.5475 280° West 353 406 25,200 1,770 Climbing FlightAware ADS-B
Tue 05:01:23 PM 30.1532 -96.6021 280° West 347 399 26,200 1,964 Climbing FlightAware ADS-B
Tue 05:01:47 PM 30.1585 -96.6369 280° West 344 396 27,000 2,000 Climbing FlightAware ADS-B
Tue 05:02:23 PM 30.1698 -96.7117 280° West 338 389 28,200 1,966 Climbing FlightAware ADS-B
Tue 05:02:45 PM 30.1755 -96.7495 280° West 335 386 28,900 2,034 Climbing FlightAware ADS-B
Tue 05:03:22 PM 30.1854 -96.8151 280° West 328 377 30,200 2,000 Climbing FlightAware ADS-B
Tue 05:03:54 PM 30.1937 -96.8714 280° West 322 371 31,200 1,524 Climbing FlightAware ADS-B
Tue 05:04:25 PM 30.2015 -96.9232 280° West 331 381 31,800 658 Climbing FlightAware ADS-B
Tue 05:05:07 PM 30.2115 -96.9911 280° West 354 407 32,000 167 Climbing FlightAware ADS-B
Tue 05:05:37 PM 30.2209 -97.0552 280° West 369 425 32,000  Level FlightAware ADS-B
Tue 05:06:08 PM 30.2300 -97.1166 280° West 375 432 32,000  Level FlightAware ADS-B
Tue 05:06:29 PM 30.2337 -97.1414 280° West 376 433 32,000  Level FlightAware ADS-B
Tue 05:07:08 PM 30.2478 -97.2375 280° West 376 433 32,000  Level FlightAware ADS-B
Tue 05:07:34 PM 30.2593 -97.2875 292° West 379 436 32,000  Level FlightAware ADS-B
Tue 05:08:05 PM 30.2812 -97.3456 293° West 379 436 32,000  Level FlightAware ADS-B
Tue 05:08:34 PM 30.3015 -97.4013 293° West 379 436 32,000  Level FlightAware ADS-B
Tue 05:09:04 PM 30.3204 -97.4532 293° West 380 437 32,000  Level FlightAware ADS-B
Tue 05:09:34 PM 30.3420 -97.5126 293° West 380 437 32,000  Level FlightAware ADS-B
Tue 05:09:36 PM 30.3440 -97.5182 293° West 381 438 32,000  Level FlightAware ADS-B (KGTU)
Tue 05:10:04 PM 30.3630 -97.5702 293° West 381 438 32,000  Level FlightAware ADS-B
Tue 05:10:07 PM 30.3650 -97.5757 293° West 382 440 32,000  Level FlightAware ADS-B (KGTU)
Tue 05:10:34 PM 30.3836 -97.6268 293° West 381 438 32,000  Level FlightAware ADS-B
Tue 05:10:37 PM 30.3854 -97.6317 293° West 382 440 32,000  Level FlightAware ADS-B (KGTU)
Tue 05:11:04 PM 30.4039 -97.6823 293° West 382 440 32,000  Level FlightAware ADS-B
Tue 05:11:07 PM 30.4061 -97.6882 293° West 384 442 32,000  Level FlightAware ADS-B (KGTU)
Tue 05:11:34 PM 30.4249 -97.7401 293° West 383 441 32,000  Level FlightAware ADS-B
Tue 05:11:37 PM 30.4270 -97.7460 293° West 385 443 32,000  Level FlightAware ADS-B (KGTU)
Tue 05:12:04 PM 30.4430 -97.7901 293° West 384 442 32,000  Level FlightAware ADS-B
Tue 05:12:07 PM 30.4471 -97.8015 293° West 385 443 32,000  Level FlightAware ADS-B (KGTU)
Tue 05:12:34 PM 30.4660 -97.8535 293° West 385 443 32,000  Level FlightAware ADS-B
Tue 05:12:47 PM 30.4753 -97.8794 293° West 386 444 32,000  Level FlightAware ADS-B (KGTU)
Tue 05:13:05 PM 30.4867 -97.9107 293° West 386 444 32,000  Level FlightAware ADS-B
Tue 05:13:27 PM 30.5028 -97.9556 293° West 387 445 32,000  Level FlightAware ADS-B (KGTU)
Tue 05:13:35 PM 30.5077 -97.9690 293° West 386 444 32,000  Level FlightAware ADS-B
Tue 05:14:04 PM 30.5275 -98.0240 293° West 387 445 32,000  Level FlightAware ADS-B
Tue 05:14:07 PM 30.5302 -98.0314 293° West 388 447 32,000  Level FlightAware ADS-B (KGTU)
Tue 05:14:34 PM 30.5439 -98.0696 293° West 387 445 32,000  Level FlightAware ADS-B
Tue 05:14:37 PM 30.5508 -98.0886 293° West 387 445 32,000  Level FlightAware ADS-B (KGTU)
Tue 05:15:04 PM 30.5699 -98.1419 293° West 386 444 32,000  Level FlightAware ADS-B
Tue 05:15:17 PM 30.5788 -98.1666 293° West 387 445 32,000  Level FlightAware ADS-B (KGTU)
Tue 05:16:04 PM 30.6102 -98.2544 293° West 385 443 32,000  Level FlightAware ADS-B
Tue 05:16:33 PM 30.6299 -98.3094 293° West 385 443 32,000  Level FlightAware ADS-B
Tue 05:17:04 PM 30.6481 -98.3604 293° West 383 441 32,000  Level FlightAware ADS-B
Tue 05:18:01 PM 30.6882 -98.4727 293° West 382 440 32,000  Level FlightAware ADS-B
Tue 05:19:14 PM 30.7397 -98.6182 293° West 382 440 32,000  Level FlightAware ADS-B
Tue 05:19:39 PM 30.7551 -98.6615 293° West 382 440 32,000  Level FlightAware ADS-B
Tue 05:20:51 PM 30.8000 -98.7887 293° West 382 440 32,000  Level FlightAware ADS-B
Tue 05:21:01 PM 30.8113 -98.8211 293° West 382 440 32,000  Level FlightAware ADS-B
Tue 05:22:02 PM 30.8494 -98.9272 293° West 383 441 32,000  Level Fort Worth Center
Tue 05:23:04 PM 30.8886 -99.0414 292° West 383 441 32,000  Level Fort Worth Center
Tue 05:24:06 PM 30.9289 -99.1561 292° West 383 441 32,000  Level Fort Worth Center
Tue 05:25:08 PM 30.9686 -99.2689 292° West 383 441 32,000  Level Fort Worth Center
Tue 05:26:20 PM 31.0150 -99.4069 291° West 381 438 32,000  Level Houston Center
Tue 05:27:22 PM 31.0558 -99.5206 293° West 382 440 32,000  Level Houston Center
Tue 05:28:25 PM 31.1017 -99.6575 291° West 381 438 32,000  Level Houston Center
Tue 05:29:27 PM 31.1414 -99.7722 292° West 382 440 32,000  Level Houston Center
Tue 05:30:29 PM 31.1808 -99.8886 292° West 384 442 32,000  Level Houston Center
Tue 05:31:31 PM 31.2200 -100.0044 292° West 384 442 32,000  Level Houston Center
Tue 05:32:33 PM 31.2592 -100.1169 292° West 382 440 32,000  Level Houston Center
Tue 05:33:35 PM 31.3056 -100.2564 291° West 382 440 32,000  Level Houston Center
Tue 05:34:37 PM 31.3447 -100.3725 292° West 383 441 32,000  Level Houston Center
Tue 05:35:40 PM 31.3828 -100.4878 291° West 383 441 32,000  Level Houston Center
Tue 05:36:42 PM 31.4219 -100.6042 292° West 383 441 32,000 -850 Level Houston Center
Tue 05:37:33 PM 31.4589 -100.7136 292° West 381 438 30,400 -2,000 Descending Fort Worth Center
Tue 05:38:36 PM 31.4953 -100.8300 290° West 381 438 28,200 -2,160 Descending Fort Worth Center
Tue 05:39:38 PM 31.5389 -100.9531 293° West 399 459 25,900 -2,177 Descending Fort Worth Center
Tue 05:40:40 PM 31.5808 -101.0781 292° West 408 470 23,700 -2,177 Descending Fort Worth Center
Tue 05:41:42 PM 31.6200 -101.1961 291° West 394 453 21,400 -2,323 Descending Fort Worth Center
Tue 05:42:44 PM 31.6644 -101.3317 291° West 376 433 18,900 -2,226 Descending Fort Worth Center
Tue 05:43:46 PM 31.7006 -101.4442 291° West 373 429 16,800 -2,468 Descending Fort Worth Center
Tue 05:44:48 PM 31.7369 -101.5533 291° West 369 425 13,800 -2,903 Descending Fort Worth Center
Tue 05:45:50 PM 31.8033 -101.6456 310° West 372 428 10,800 -2,832 Descending Fort Worth Center
Tue 05:46:53 PM 31.8233 -101.7406 284° West 312 359 7,900 -2,352 Descending Fort Worth Center
Tue 05:47:55 PM 31.8478 -101.8447 285° West 280 322 5,900 -1,452 Descending Fort Worth Center
Tue 05:48:57 PM 31.8664 -101.9292 285° West 271 312 4,900 -435 Descending Fort Worth Center
Tue 05:49:59 PM 31.8833 -102.0053 285° West 253 291 5,000 48 Climbing Fort Worth Center
Tue 05:51:01 PM 31.8983 -102.0819 283° West 233 268 5,000 -581 Level Fort Worth Center
Tue 05:52:03 PM 31.9167 -102.1339 293° West 207 238 3,800 -968 Descending Fort Worth Center
Tue 05:53:05 PM 31.9364 -102.1864 294° West 160 184 3,000 -774 Descending Fort Worth Center
Tue 05:55:00 PM 31.9333 -102.2000 301° West  Level FlightAware Approximate
Tue 06:02:00 PM 31.9425 -102.2019 301° West  Level Estimated

Login

Don't have an account? Register now (free) for customized features, flight alerts, and more!